TimeEDT,TemperatureF,Dew PointF,Humidity,Sea Level PressureIn,VisibilityMPH,Wind Direction,Wind SpeedMPH,Gust SpeedMPH,PrecipitationIn,Events,Conditions,WindDirDegrees,DateUTC
12:14 AM,38.3,38.3,100,29.76,10.0,Calm,Calm,-,N/A,,Mostly Cloudy,0,2013-10-20 04:14:00
12:35 AM,38.8,38.8,100,29.76,10.0,South,3.5,-,N/A,,Overcast,170,2013-10-20 04:35:00
12:55 AM,38.5,38.5,100,29.76,10.0,Calm,Calm,-,N/A,,Overcast,0,2013-10-20 04:55:00
1:14 AM,38.1,38.1,100,29.76,10.0,SW,3.5,-,N/A,,Overcast,220,2013-10-20 05:14:00
1:35 AM,38.3,38.3,100,29.75,10.0,South,3.5,-,N/A,,Mostly Cloudy,170,2013-10-20 05:35:00
1:55 AM,37.4,37.4,100,29.76,7.0,Calm,Calm,-,N/A,,Mostly Cloudy,0,2013-10-20 05:55:00
2:14 AM,37.9,37.9,100,29.75,10.0,SSW,6.9,-,N/A,,Overcast,200,2013-10-20 06:14:00
2:35 AM,37.2,37.2,100,29.76,5.0,Calm,Calm,-,N/A,,Overcast,0,2013-10-20 06:35:00
2:55 AM,38.3,38.3,100,29.76,7.0,Calm,Calm,-,N/A,,Overcast,0,2013-10-20 06:55:00
3:14 AM,38.7,38.7,100,29.76,7.0,Calm,Calm,-,N/A,,Overcast,0,2013-10-20 07:14:00
3:35 AM,38.3,38.3,100,29.75,5.0,ESE,3.5,-,N/A,,Overcast,120,2013-10-20 07:35:00
3:55 AM,38.8,38.8,100,29.76,5.0,Calm,Calm,-,N/A,,Unknown,0,2013-10-20 07:55:00
4:14 AM,39.2,39.2,100,29.76,3.0,Calm,Calm,-,0.01,,Unknown,0,2013-10-20 08:14:00
4:35 AM,39.7,39.7,100,29.75,3.0,Calm,Calm,-,0.04,,Overcast,0,2013-10-20 08:35:00
4:55 AM,39.9,39.9,100,29.75,10.0,South,4.6,-,0.04,,Overcast,190,2013-10-20 08:55:00
5:14 AM,39.7,39.7,100,29.76,7.0,Calm,Calm,-,N/A,,Overcast,0,2013-10-20 09:14:00
5:35 AM,39.9,39.9,100,29.76,5.0,South,3.5,-,0.01,Rain,Light Rain,180,2013-10-20 09:35:00
5:54 AM,39.7,39.7,100,29.77,7.0,SSW,4.6,-,0.02,Rain,Light Rain,200,2013-10-20 09:54:00
6:14 AM,39.7,39.7,100,29.77,5.0,Calm,Calm,-,N/A,Rain,Light Rain,0,2013-10-20 10:14:00
6:35 AM,39.6,39.6,100,29.77,7.0,South,3.5,-,N/A,,Overcast,190,2013-10-20 10:35:00
6:55 AM,39.7,39.7,100,29.77,10.0,SSW,4.6,-,N/A,,Overcast,210,2013-10-20 10:55:00
7:14 AM,39.6,39.6,100,29.78,10.0,SSW,5.8,-,N/A,,Overcast,210,2013-10-20 11:14:00
7:35 AM,39.7,39.7,100,29.78,5.0,Calm,Calm,-,N/A,Rain,Light Rain,0,2013-10-20 11:35:00
7:54 AM,39.7,39.7,100,29.78,10.0,Calm,Calm,-,N/A,,Overcast,0,2013-10-20 11:54:00
8:14 AM,39.2,39.2,100,29.79,10.0,SSW,5.8,-,N/A,,Mostly Cloudy,210,2013-10-20 12:14:00
8:35 AM,39.2,39.2,100,29.80,10.0,SSW,6.9,-,N/A,,Mostly Cloudy,200,2013-10-20 12:35:00
8:54 AM,40.1,40.1,100,29.81,10.0,Calm,Calm,-,N/A,,Overcast,0,2013-10-20 12:54:00
9:15 AM,40.3,40.3,100,29.82,10.0,East,5.8,-,N/A,,Overcast,100,2013-10-20 13:15:00
9:35 AM,41.9,41.9,100,29.83,10.0,WSW,4.6,-,N/A,,Overcast,250,2013-10-20 13:35:00
9:54 AM,43.0,42.8,99,29.83,10.0,WSW,5.8,-,N/A,,Scattered Clouds,250,2013-10-20 13:54:00
10:15 AM,43.7,42.6,96,29.83,10.0,WSW,5.8,-,N/A,,Scattered Clouds,240,2013-10-20 14:15:00
10:34 AM,44.4,42.6,93,29.84,10.0,SW,4.6,-,N/A,,Clear,230,2013-10-20 14:34:00
10:54 AM,45.1,43.5,94,29.84,10.0,Calm,Calm,-,N/A,,Scattered Clouds,0,2013-10-20 14:54:00
11:15 AM,47.5,41.0,78,29.84,10.0,West,3.5,-,N/A,,Mostly Cloudy,280,2013-10-20 15:15:00
11:34 AM,46.8,39.0,74,29.85,10.0,WSW,6.9,-,N/A,,Mostly Cloudy,250,2013-10-20 15:34:00
11:54 AM,47.3,38.7,72,29.85,10.0,WSW,10.4,-,N/A,,Mostly Cloudy,250,2013-10-20 15:54:00
12:15 PM,47.1,37.8,70,29.86,10.0,West,5.8,-,N/A,,Mostly Cloudy,260,2013-10-20 16:15:00
12:34 PM,48.9,38.8,68,29.86,10.0,WSW,6.9,-,N/A,,Mostly Cloudy,250,2013-10-20 16:34:00
12:54 PM,48.9,37.6,65,29.85,10.0,SW,8.1,-,N/A,,Overcast,220,2013-10-20 16:54:00
1:15 PM,49.8,38.5,65,29.85,10.0,West,5.8,-,N/A,,Mostly Cloudy,270,2013-10-20 17:15:00
1:34 PM,51.6,38.8,62,29.84,10.0,SW,9.2,-,N/A,,Mostly Cloudy,220,2013-10-20 17:34:00
1:54 PM,51.6,38.8,62,29.83,10.0,SW,10.4,-,N/A,,Mostly Cloudy,230,2013-10-20 17:54:00
2:15 PM,51.6,38.1,60,29.83,10.0,SW,8.1,18.4,N/A,,Overcast,230,2013-10-20 18:15:00
2:34 PM,52.0,37.6,58,29.82,10.0,SW,9.2,-,N/A,,Mostly Cloudy,230,2013-10-20 18:34:00
2:54 PM,53.4,37.0,54,29.82,10.0,SSW,11.5,17.3,N/A,,Mostly Cloudy,210,2013-10-20 18:54:00
3:15 PM,52.5,35.6,53,29.81,10.0,SSW,5.8,16.1,N/A,,Mostly Cloudy,210,2013-10-20 19:15:00
3:34 PM,52.5,34.9,51,29.81,10.0,South,12.7,20.7,N/A,,Scattered Clouds,180,2013-10-20 19:34:00
3:54 PM,52.2,34.2,50,29.80,10.0,South,9.2,19.6,N/A,,Mostly Cloudy,190,2013-10-20 19:54:00
4:15 PM,52.2,35.1,52,29.80,10.0,SW,8.1,19.6,N/A,,Overcast,230,2013-10-20 20:15:00
4:34 PM,51.4,34.9,53,29.80,10.0,SW,9.2,-,N/A,,Overcast,220,2013-10-20 20:34:00
4:54 PM,51.8,34.9,53,29.80,10.0,SSW,6.9,-,N/A,,Overcast,200,2013-10-20 20:54:00
5:15 PM,51.1,35.4,55,29.80,10.0,SSE,3.5,-,N/A,,Overcast,160,2013-10-20 21:15:00
5:34 PM,51.1,36.1,57,29.79,10.0,South,3.5,-,N/A,,Overcast,170,2013-10-20 21:34:00
5:55 PM,50.5,36.9,59,29.79,10.0,SSE,3.5,-,N/A,Rain,Light Rain,160,2013-10-20 21:55:00
6:14 PM,49.3,38.7,67,29.79,10.0,Calm,Calm,-,N/A,Rain,Light Rain,0,2013-10-20 22:14:00
6:34 PM,48.7,39.6,71,29.78,10.0,Calm,Calm,-,N/A,Rain,Light Rain,0,2013-10-20 22:34:00
6:55 PM,47.5,41.9,81,29.78,10.0,Calm,Calm,-,N/A,,Overcast,0,2013-10-20 22:55:00
7:14 PM,47.5,41.7,80,29.78,10.0,Calm,Calm,-,0.01,Rain,Light Rain,0,2013-10-20 23:14:00
7:34 PM,47.3,42.8,84,29.77,7.0,SE,3.5,-,0.01,,Unknown,140,2013-10-20 23:34:00
7:55 PM,46.9,42.1,83,29.76,10.0,Calm,Calm,-,0.01,Rain,Light Rain,0,2013-10-20 23:55:00
8:14 PM,46.8,42.4,85,29.76,10.0,Calm,Calm,-,N/A,,Overcast,0,2013-10-21 00:14:00
8:35 PM,46.9,44.8,92,29.75,10.0,Calm,Calm,-,N/A,,Overcast,0,2013-10-21 00:35:00
8:55 PM,46.8,45.5,95,29.74,10.0,Calm,Calm,-,0.01,Rain,Light Rain,0,2013-10-21 00:55:00
9:14 PM,47.3,45.9,95,29.74,10.0,Calm,Calm,-,N/A,Rain,Light Rain,0,2013-10-21 01:14:00
9:35 PM,47.7,45.1,91,29.74,10.0,Calm,Calm,-,0.01,Rain,Light Rain,0,2013-10-21 01:35:00
9:55 PM,47.5,46.4,96,29.72,10.0,Calm,Calm,-,0.03,Rain,Rain,0,2013-10-21 01:55:00
10:14 PM,47.5,47.1,99,29.72,10.0,SSE,3.5,-,N/A,Rain,Light Rain,160,2013-10-21 02:14:00
10:35 PM,47.7,47.3,99,29.72,5.0,SSE,5.8,-,0.02,Rain,Light Rain,160,2013-10-21 02:35:00
10:55 PM,47.8,47.8,100,29.71,10.0,SSE,4.6,-,0.04,Rain,Light Rain,160,2013-10-21 02:55:00
11:14 PM,48.4,48.4,100,29.72,10.0,South,5.8,-,N/A,Rain,Light Rain,180,2013-10-21 03:14:00
11:35 PM,48.9,48.9,100,29.72,10.0,SSW,5.8,-,N/A,,Overcast,200,2013-10-21 03:35:00
11:55 PM,49.1,48.9,99,29.71,10.0,South,4.6,-,N/A,,Overcast,180,2013-10-21 03:55:00